Weather History for KP58 - November, 2013

Change the Weather History Date:

Friday, November 1, 2013

  Actual Average Record
Temperature  
Mean Temperature 54 °F -  
Max Temperature 62 °F 50 °F 72 °F (1999)
Min Temperature 46 °F 38 °F 30 °F (1996)
Degree Days  
Heating Degree Days 11    
Growing Degree Days 4 (Base 50)    
Moisture  
Dew Point 46 °F    
Average Humidity 83    
Maximum Humidity 93    
Minimum Humidity 74    
Precipitation  
Precipitation 0.25 in - - ()
Sea Level Pressure  
Sea Level Pressure 29.33 in    
Wind  
Wind Speed 12 mph (WSW)    
Max Wind Speed 23 mph    
Max Gust Speed 40 mph    
Averages and records for this station are not official NWS values.
T = Trace of Precipitation, MM = Missing Value Source: NWS Daily Summary

Daily Weather History Graph

Daily Weather History Graph

Search for Another Location

Airport or City:

Trip Planner

Search our weather history database for the weather conditions in past years. The results will help you decide how hot, cold, wet, or windy it might be!

Date:

Astronomy

Nov. 01, 2013 Rise Set
Actual Time 8:07 AM EDT 6:20 PM EDT
Civil Twilight 7:37 AM EDT 6:50 PM EDT
Nautical Twilight 7:03 AM EDT 7:25 PM EDT
Astronomical Twilight 6:30 AM EDT 7:58 PM EDT
Moon 5:55 AM EDT (11/1) 5:15 PM EDT (11/1)
Length of Visible Light 11h 13m
Length of Day
10h 12m
Waning Crescent, 4% of the Moon is Illuminated
Nov 1
Waning Crescent
Nov 3
New
Nov 10
First Quarter
Nov 17
Full
Nov 25
Last Quarter

Hourly Weather History & Observations

Time (EDT) Temp. Dew Point Humidity Pressure Visibility Wind Dir Wind Speed Gust Speed Precip Events Conditions
12:51 AM 61.0 °F 57.9 °F 90% 29.01 in - South 9.2 mph - 0.01 in   Unknown
1:51 AM 62.1 °F 57.0 °F 84% 28.98 in - SSW 10.4 mph 19.6 mph N/A   Unknown
2:51 AM 61.0 °F 55.9 °F 83% 28.94 in - SW 15.0 mph 24.2 mph N/A   Unknown
3:51 AM 57.0 °F 53.1 °F 87% 28.99 in - WSW 13.8 mph 24.2 mph N/A   Unknown
4:51 AM 54.0 °F 51.1 °F 90% 29.03 in - WSW 21.9 mph 38.0 mph 0.11 in   Unknown
5:51 AM 52.0 °F 46.9 °F 83% 29.08 in - West 23.0 mph 40.3 mph 0.05 in   Unknown
6:51 AM 50.0 °F 45.0 °F 83% 29.12 in - WSW 15.0 mph 28.8 mph N/A   Unknown
7:51 AM 50.0 °F 44.1 °F 80% 29.17 in - WSW 17.3 mph 35.7 mph N/A   Unknown
8:51 AM 48.9 °F 43.0 °F 80% 29.24 in - WSW 19.6 mph 31.1 mph N/A   Unknown
9:51 AM 50.0 °F 43.0 °F 77% 29.29 in - WSW 15.0 mph 28.8 mph N/A   Unknown
10:51 AM 50.0 °F 43.0 °F 77% 29.34 in - WSW 15.0 mph 34.5 mph N/A   Unknown
11:51 AM 51.1 °F 44.1 °F 77% 29.37 in - WSW 13.8 mph 29.9 mph N/A   Unknown
12:51 PM 50.0 °F 43.0 °F 77% 29.42 in - WSW 10.4 mph 31.1 mph N/A   Unknown
1:51 PM 51.1 °F 43.0 °F 74% 29.44 in - WSW 16.1 mph 27.6 mph N/A   Unknown
2:51 PM 51.1 °F 43.0 °F 74% 29.47 in - WSW 15.0 mph 24.2 mph N/A   Unknown
3:51 PM 50.0 °F 42.1 °F 74% 29.50 in - WSW 10.4 mph 20.7 mph N/A   Unknown
4:51 PM 48.9 °F 43.0 °F 80% 29.53 in - WSW 10.4 mph 21.9 mph N/A   Unknown
5:51 PM 48.0 °F 43.0 °F 83% 29.55 in - WSW 10.4 mph - N/A   Unknown
6:51 PM 46.9 °F 44.1 °F 90% 29.56 in - WSW 6.9 mph - N/A   Unknown
7:51 PM 46.9 °F 44.1 °F 90% 29.59 in - Variable 4.6 mph - 0.01 in   Unknown
8:51 PM 46.9 °F 44.1 °F 90% 29.59 in - Variable 5.8 mph - N/A   Unknown
9:51 PM 46.9 °F 44.1 °F 90% 29.60 in - WSW 4.6 mph - N/A   Unknown
10:51 PM 46.9 °F 45.0 °F 93% 29.61 in - West 3.5 mph - 0.02 in   Unknown
11:51 PM 46.9 °F 45.0 °F 93% 29.61 in - Calm Calm - 0.05 in   Unknown